Location: San Vito
(41.8833°N, 12.9833°E)
Time: 08:44:23
(UTC+00:00)

COSMOS 2455 - Pass Details

Date: 17 November 2019
Orbit: 902 x 908 km, 67.1° (Epoch: 07 December)

Event Time Altitude Azimuth Distance (km) Brightness Sun altitude
Exits shadow 04:40:31 11° 324° (NW) 2,513 4.7 -14.7°
Maximum altitude 04:46:14 65° 245° (WSW) 993 2.8 -13.7°
Drops below altitude 10° 04:52:09 10° 165° (SSE) 2,578 5.6 -12.6°
Sets 04:54:39 0° 162° (SSE) 3,514 6.4 -12.2°
